User: anonymous   Login
Location: Unspecified
(0.0000°N, 0.0000°E)
Time: 01:54:56
(UTC+00:00)
Language:

Aussat K3 - Orbit

View from above orbital plane
View from above orbital plane
View from above satellite
View from above satellite

Ground track
Ground track

The orbit data is extracted from the following two-line orbital elements,

1 18350U 87078A   16118.09750361 -.00000163 +00000-0 +00000-0 0  9996
2 18350 014.3827 022.4827 0006293 271.7598 254.0923 00.98906032009414
Epoch (UTC): 27 April 2016 02:20:24
Eccentricity: 0.0006293
inclination: 14.3827°
perigee height: 36147 km
apogee height: 36200 km
right ascension of ascending node: 22.4827°
argument of perigee: 271.7598°
revolutions per day: 0.98906032
mean anomaly at epoch: 254.0923°
orbit number at epoch: 941

The dashed part of the orbit path shows where the satellite is in the earth's shadow,  

DLR